International Skating Union - Official Site

ISU World Cup Speed Skating Salt lake City
December 8-11, 2017

Draw | Lap Times | Index | World Cup

Referee: Susan  SANDVIG-SHOBE  (USA)
Starter: Matthew  VRAA  (USA)
StartTime: EndTime: Air Temp: Ice Temp: Humidity:
10:37 11:27 15.2℃ -8.7℃ 21%
Result 3000m Ladies Division B
Rankings as of Dec 10 2017 11:27AM
Rank: No.: Name: Nation: Time: Behind: Points:
1 269 Linda  de Vries NED NED 3:59.76200m - 19.93 - (19.9)
600m - 50.38 - (30.4)
1000m - 1:20.70 - (30.3)
1400m - 1:51.51 - (30.8)
1800m - 2:22.59 - (31.0)
2200m - 2:54.13 - (31.5)
2600m - 3:26.32 - (32.1)
3000m - 3:59.76 - (33.4)
32
2 220 Jiachen  Hao CHN CHN 4:02.78200m - 20.21 - (20.2)
600m - 51.50 - (31.2)
1000m - 1:22.52 - (31.0)
1400m - 1:53.85 - (31.3)
1800m - 2:25.27 - (31.4)
2200m - 2:57.20 - (31.9)
2600m - 3:29.71 - (32.5)
3000m - 4:02.78 - (33.0)
3.02 27
3 276 Annouk  van der Weijden NED NED 4:02.89200m - 20.28 - (20.2)
600m - 51.03 - (30.7)
1000m - 1:21.82 - (30.7)
1400m - 1:53.07 - (31.2)
1800m - 2:24.39 - (31.3)
2200m - 2:56.39 - (32.0)
2600m - 3:29.14 - (32.7)
3000m - 4:02.89 - (33.7)
3.13 23
4 279 Ida  Njåtun NOR NOR 4:03.81200m - 19.92 - (19.9)
600m - 50.47 - (30.5)
1000m - 1:21.49 - (31.0)
1400m - 1:52.85 - (31.3)
1800m - 2:25.06 - (32.2)
2200m - 2:57.44 - (32.3)
2600m - 3:30.40 - (32.9)
3000m - 4:03.81 - (33.4)
4.05 19
5 219 Mei  Han CHN CHN 4:03.92200m - 20.17 - (20.1)
600m - 50.72 - (30.5)
1000m - 1:21.38 - (30.6)
1400m - 1:52.67 - (31.2)
1800m - 2:24.52 - (31.8)
2200m - 2:57.22 - (32.6)
2600m - 3:30.36 - (33.1)
3000m - 4:03.92 - (33.5)
4.16 15
6 261 Bo-Reum  Kim KOR KOR 4:04.44200m - 21.10 - (21.1)
600m - 52.66 - (31.5)
1000m - 1:24.07 - (31.4)
1400m - 1:55.79 - (31.7)
1800m - 2:27.41 - (31.6)
2200m - 2:59.66 - (32.2)
2600m - 3:31.80 - (32.1)
3000m - 4:04.44 - (32.6)
4.68 11
7 238 Stephanie  Beckert GER GER 4:04.88200m - 21.53 - (21.5)
600m - 53.27 - (31.7)
1000m - 1:24.59 - (31.3)
1400m - 1:56.21 - (31.6)
1800m - 2:27.98 - (31.7)
2200m - 3:00.00 - (32.0)
2600m - 3:32.36 - (32.3)
3000m - 4:04.88 - (32.5)
5.12 9
8 257 Nana  Takahashi JPN JPN 4:05.10200m - 20.70 - (20.6)
600m - 51.95 - (31.2)
1000m - 1:23.48 - (31.5)
1400m - 1:54.74 - (31.2)
1800m - 2:26.50 - (31.7)
2200m - 2:58.97 - (32.4)
2600m - 3:32.01 - (33.0)
3000m - 4:05.10 - (33.0)
5.34 7
9 222 Dan  Li CHN CHN 4:05.12200m - 20.07 - (20.0)
600m - 50.50 - (30.4)
1000m - 1:21.38 - (30.8)
1400m - 1:53.15 - (31.7)
1800m - 2:25.38 - (32.2)
2200m - 2:58.36 - (32.9)
2600m - 3:31.55 - (33.1)
3000m - 4:05.12 - (33.5)
5.36 6
10 204 Jelena  Peeters BEL BEL 4:05.25200m - 20.66 - (20.6)
600m - 52.92 - (32.2)
1000m - 1:24.98 - (32.0)
1400m - 1:56.62 - (31.6)
1800m - 2:28.49 - (31.8)
2200m - 3:00.49 - (32.0)
2600m - 3:32.57 - (32.0)
3000m - 4:05.25 - (32.6)
5.49 5
11 281 Katarzyna  Bachleda-Curus POL POL 4:05.75200m - 19.81 - (19.8)
600m - 49.88 - (30.0)
1000m - 1:20.73 - (30.8)
1400m - 1:52.00 - (31.2)
1800m - 2:23.96 - (31.9)
2200m - 2:56.79 - (32.8)
2600m - 3:30.56 - (33.7)
3000m - 4:05.75 - (35.1)
5.99 4
12 213 Josie  Morrison CAN CAN 4:05.88200m - 21.23 - (21.2)
600m - 53.12 - (31.8)
1000m - 1:25.13 - (32.0)
1400m - 1:56.75 - (31.6)
1800m - 2:28.56 - (31.8)
2200m - 3:00.57 - (32.0)
2600m - 3:32.85 - (32.2)
3000m - 4:05.88 - (33.0)
6.12 3
13 290 Victoria  Filyushkina RUS RUS 4:07.14200m - 21.30 - (21.3)
600m - 53.50 - (32.2)
1000m - 1:25.56 - (32.0)
1400m - 1:57.27 - (31.7)
1800m - 2:29.44 - (32.1)
2200m - 3:01.67 - (32.2)
2600m - 3:34.18 - (32.5)
3000m - 4:07.14 - (32.9)
7.38 2
14 235 Saskia  Alusalu EST EST 4:07.54200m - 20.16 - (20.1)
600m - 50.70 - (30.5)
1000m - 1:21.96 - (31.2)
1400m - 1:53.71 - (31.7)
1800m - 2:26.14 - (32.4)
2200m - 2:59.26 - (33.1)
2600m - 3:32.74 - (33.4)
3000m - 4:07.54 - (34.7)
7.78 1
15 285 Katarzyna  Wozniak POL POL 4:07.96200m - 20.43 - (20.4)
600m - 51.17 - (30.7)
1000m - 1:21.94 - (30.7)
1400m - 1:53.17 - (31.2)
1800m - 2:24.96 - (31.7)
2200m - 2:57.60 - (32.6)
2600m - 3:31.79 - (34.1)
3000m - 4:07.96 - (36.1)
8.20 0
16 287 Luiza  Zlotkowska POL POL 4:07.99200m - 19.99 - (19.9)
600m - 51.17 - (31.1)
1000m - 1:22.73 - (31.5)
1400m - 1:54.83 - (32.0)
1800m - 2:26.92 - (32.0)
2200m - 2:59.73 - (32.8)
2600m - 3:33.24 - (33.5)
3000m - 4:07.99 - (34.7)
8.23 0
17 243 Michelle  Uhrig GER GER 4:08.27200m - 21.08 - (21.0)
600m - 52.47 - (31.3)
1000m - 1:23.49 - (31.0)
1400m - 1:54.98 - (31.4)
1800m - 2:26.99 - (32.0)
2200m - 2:59.84 - (32.8)
2600m - 3:33.71 - (33.8)
3000m - 4:08.27 - (34.5)
8.51 0
18 284 Magdalena  Czyszczon POL POL 4:08.37200m - 20.77 - (20.7)
600m - 51.55 - (30.7)
1000m - 1:22.85 - (31.2)
1400m - 1:54.40 - (31.5)
1800m - 2:26.70 - (32.2)
2200m - 2:59.76 - (33.0)
2600m - 3:33.87 - (34.1)
3000m - 4:08.37 - (34.4)
8.61 0
19 282 Karolina  Bosiek POL POL 4:09.24200m - 20.22 - (20.2)
600m - 51.52 - (31.3)
1000m - 1:23.40 - (31.8)
1400m - 1:55.68 - (32.2)
1800m - 2:28.47 - (32.7)
2200m - 3:01.69 - (33.2)
2600m - 3:35.56 - (33.8)
3000m - 4:09.24 - (33.6)
9.48 0
20 260 Yelena  Urvantseva KAZ KAZ 4:10.95200m - 21.16 - (21.1)
600m - 53.11 - (31.9)
1000m - 1:25.08 - (31.9)
1400m - 1:57.42 - (32.3)
1800m - 2:30.03 - (32.6)
2200m - 3:03.26 - (33.2)
2600m - 3:36.82 - (33.5)
3000m - 4:10.95 - (34.1)
11.19 0
21 301 Petra  Acker USA USA 4:12.45 (2) 200m - 21.37 - (21.3)
600m - 53.84 - (32.4)
1000m - 1:26.25 - (32.4)
1400m - 1:59.08 - (32.8)
1800m - 2:31.45 - (32.3)
2200m - 3:04.33 - (32.8)
2600m - 3:37.83 - (33.5)
3000m - 4:12.45 - (34.6)
12.69 0
22 234 Elena Moeller  Rigas DEN DEN 4:12.45 (5) 200m - 20.58 - (20.5)
600m - 52.04 - (31.4)
1000m - 1:23.59 - (31.5)
1400m - 1:55.75 - (32.1)
1800m - 2:28.60 - (32.8)
2200m - 3:02.49 - (33.8)
2600m - 3:37.11 - (34.6)
3000m - 4:12.45 - (35.3)
12.69 0
23 266 Ji Woo  Park KOR KOR 4:13.22200m - 20.85 - (20.8)
600m - 53.27 - (32.4)
1000m - 1:25.83 - (32.5)
1400m - 1:58.64 - (32.8)
1800m - 2:31.66 - (33.0)
2200m - 3:05.24 - (33.5)
2600m - 3:39.00 - (33.7)
3000m - 4:13.22 - (34.2)
13.46 0
24 302 Erin  Bartlett USA USA 4:14.66200m - 21.28 - (21.2)
600m - 53.31 - (32.0)
1000m - 1:26.01 - (32.7)
1400m - 1:58.63 - (32.6)
1800m - 2:31.83 - (33.2)
2200m - 3:04.95 - (33.1)
2600m - 3:39.04 - (34.0)
3000m - 4:14.66 - (35.6)
14.90 0
25 268 Reina  Anema NED NED 4:14.98200m - 20.60 - (20.6)
600m - 51.84 - (31.2)
1000m - 1:23.64 - (31.7)
1400m - 1:56.27 - (32.6)
1800m - 2:29.80 - (33.5)
2200m - 3:04.46 - (34.6)
2600m - 3:39.33 - (34.8)
3000m - 4:14.98 - (35.6)
15.22 0
26 247 Gloria  Malfatti ITA ITA 4:16.12200m - 21.53 - (21.5)
600m - 53.80 - (32.2)
1000m - 1:26.40 - (32.6)
1400m - 1:59.14 - (32.7)
1800m - 2:32.58 - (33.4)
2200m - 3:06.25 - (33.6)
2600m - 3:40.80 - (34.5)
3000m - 4:16.12 - (35.3)
16.36 0
27 228 Laura  Gomez COL COL 4:16.85200m - 20.99 - (20.9)
600m - 52.41 - (31.4)
1000m - 1:25.13 - (32.7)
1400m - 1:58.10 - (32.9)
1800m - 2:31.58 - (33.4)
2200m - 3:05.84 - (34.2)
2600m - 3:41.03 - (35.1)
3000m - 4:16.85 - (35.8)
17.09 0
28 205 Tatsiana  Mikhailava BLR BLR 4:17.99200m - 20.94 - (20.9)
600m - 53.60 - (32.6)
1000m - 1:26.98 - (33.3)
1400m - 2:01.07 - (34.0)
1800m - 2:35.03 - (33.9)
2200m - 3:08.82 - (33.7)
2600m - 3:43.35 - (34.5)
3000m - 4:17.99 - (34.6)
18.23 0
29 271 Marije  Joling NED NED 4:18.45200m - 19.98 - (19.9)
600m - 50.61 - (30.6)
1000m - 1:21.87 - (31.2)
1400m - 1:54.91 - (33.0)
1800m - 2:29.18 - (34.2)
2200m - 3:05.19 - (36.0)
2600m - 3:41.91 - (36.7)
3000m - 4:18.45 - (36.5)
18.69 0
30 202 Viola  Feichtner AUT AUT 4:19.43200m - 21.30 - (21.3)
600m - 53.56 - (32.2)
1000m - 1:25.90 - (32.3)
1400m - 1:58.73 - (32.8)
1800m - 2:32.30 - (33.5)
2200m - 3:06.76 - (34.4)
2600m - 3:42.70 - (35.9)
3000m - 4:19.43 - (36.7)
19.67 0
31 308 Franchesca  Pasquarella USA USA 4:21.82200m - 21.28 - (21.2)
600m - 54.46 - (33.1)
1000m - 1:27.94 - (33.4)
1400m - 2:01.33 - (33.3)
1800m - 2:35.26 - (33.9)
2200m - 3:09.98 - (34.7)
2600m - 3:45.76 - (35.7)
3000m - 4:21.82 - (36.0)
22.06 0
32 237 Gemma  Cooper GBR GBR 4:22.58200m - 21.60 - (21.6)
600m - 53.91 - (32.3)
1000m - 1:26.37 - (32.4)
1400m - 1:59.24 - (32.8)
1800m - 2:33.56 - (34.3)
2200m - 3:08.72 - (35.1)
2600m - 3:45.04 - (36.3)
3000m - 4:22.58 - (37.5)
22.82 0
33 299 Ramona  Härdi SUI SUI 4:24.08200m - 21.04 - (21.0)
600m - 53.05 - (32.0)
1000m - 1:26.31 - (33.2)
1400m - 2:00.39 - (34.0)
1800m - 2:35.49 - (35.1)
2200m - 3:11.28 - (35.7)
2600m - 3:47.59 - (36.3)
3000m - 4:24.09 - (36.4)
24.33 0